Date String (YYYY-MM-DD hh:mm:ss) UTC,Instrument flags,Ambient pressure (hPa),Sample flow (lpm),Bypass flow (lpm),Sample temperature (°C),Ambient temperature (°C),ASC tube jacket temperature (°C),LED temperature (°C),Box temperature (°C),Sample RH (%),Span deviation,Mass concentration (μg/m³),Mass concentration (μg/m³),Mass concentration (μg/m³)
DateTimeUTC,F1_M11,P_M11,Q1_M11,Q2_M11,T1_M11,T2_M11,T3_M11,T4_M11,T5_M11,U1_M11,ZSPAN_M11,X0_M11,X2_M11,X1_M11
2022-10-05 06:00:00,,0832.0,5.00,0.00,29.1,27.6,00.0,37.8,31.0,23.0,0000.0,0007.90,0005.27,0005.07
2022-10-05 06:01:00,,0832.0,5.01,0.00,29.1,27.7,00.0,37.8,31.0,23.1,0000.0,0007.96,0005.28,0005.07
2022-10-05 06:02:00,,0832.1,4.99,0.00,29.1,27.6,00.0,37.8,31.0,23.0,0000.0,0008.02,0005.29,0005.07
2022-10-05 06:03:00,,0832.1,5.01,0.00,29.1,27.6,00.0,37.8,31.0,22.9,0000.0,0008.09,0005.32,0005.09
2022-10-05 06:04:00,,0832.1,5.00,0.00,29.1,27.7,00.0,37.8,31.0,22.9,0000.0,0008.23,0005.36,0005.10
2022-10-05 06:05:00,,0832.1,4.99,0.00,29.1,27.7,00.0,37.8,31.0,22.8,0000.0,0008.33,0005.39,0005.12
2022-10-05 06:06:00,,0832.1,5.01,0.00,29.1,27.7,00.0,37.8,31.0,22.8,0000.0,0008.36,0005.40,0005.13
2022-10-05 06:07:00,,0832.1,4.99,0.00,29.1,27.7,00.0,37.8,31.0,22.9,0000.0,0008.36,0005.42,0005.14
2022-10-05 06:08:00,,0832.1,5.01,0.00,29.1,27.7,00.0,37.8,31.0,23.0,0000.0,0008.35,0005.43,0005.15
2022-10-05 06:09:00,,0832.1,5.00,0.00,29.1,27.7,00.0,37.8,31.0,23.0,0000.0,0008.39,0005.47,0005.17
2022-10-05 06:10:00,,0832.1,4.99,0.00,29.1,27.7,00.0,37.8,31.0,23.0,0000.0,0008.44,0005.51,0005.20
2022-10-05 06:11:00,,0832.1,5.01,0.00,29.1,27.7,00.0,37.8,31.0,23.0,0000.0,0008.48,0005.53,0005.20
2022-10-05 06:12:00,,0832.1,4.99,0.00,29.1,27.7,00.0,37.8,31.0,23.1,0000.0,0008.43,0005.53,0005.21
2022-10-05 06:13:00,,0832.1,5.00,0.00,29.1,27.8,00.0,37.8,31.0,23.7,0000.0,0008.43,0005.57,0005.26
2022-10-05 06:14:00,,0832.1,5.00,0.00,29.2,27.8,00.0,37.8,31.0,24.2,0000.0,0008.51,0005.65,0005.33
2022-10-05 06:15:00,,0832.1,4.99,0.00,29.2,27.8,00.0,37.8,31.0,24.6,0000.0,0008.53,0005.73,0005.43
2022-10-05 06:16:00,,0832.1,5.01,0.00,29.2,27.8,00.0,37.8,31.0,25.0,0000.0,0008.58,0005.84,0005.54
2022-10-05 06:17:00,,0832.1,4.99,0.00,29.2,27.8,00.0,37.8,31.1,25.1,0000.0,0008.74,0005.97,0005.66
2022-10-05 06:18:00,,0832.1,5.01,0.00,29.2,27.8,00.0,37.9,31.1,24.9,0000.0,0009.11,0006.11,0005.78
2022-10-05 06:19:00,,0832.0,4.99,0.00,29.2,27.8,00.0,37.8,31.1,24.4,0000.0,0009.40,0006.19,0005.86
2022-10-05 06:20:00,,0832.0,5.01,0.00,29.2,27.8,00.0,37.9,31.1,23.8,0000.0,0009.91,0006.21,0005.89
2022-10-05 06:21:00,,0832.0,5.00,0.00,29.2,27.8,00.0,37.9,31.1,23.7,0000.0,0010.46,0006.25,0005.93
2022-10-05 06:22:00,,0832.1,4.99,0.00,29.2,27.8,00.0,37.9,31.1,23.5,0000.0,0011.10,0006.27,0005.97
2022-10-05 06:23:00,,0832.1,5.01,0.00,29.2,27.8,00.0,37.9,31.1,23.2,0000.0,0011.25,0006.31,0005.99
2022-10-05 06:24:00,,0832.0,4.99,0.00,29.2,27.8,00.0,37.9,31.1,23.2,0000.0,0011.38,0006.31,0005.98
2022-10-05 06:25:00,,0832.1,5.01,0.00,29.2,27.8,00.0,37.9,31.1,23.3,0000.0,0011.43,0006.30,0005.94
2022-10-05 06:26:00,,0832.1,5.01,0.00,29.2,27.8,00.0,37.9,31.1,23.4,0000.0,0011.41,0006.26,0005.90
2022-10-05 06:27:00,,0832.1,4.99,0.00,29.2,27.8,00.0,37.9,31.1,23.6,0000.0,0011.44,0006.23,0005.85
2022-10-05 06:28:00,,0832.1,5.01,0.00,29.2,27.8,00.0,37.9,31.1,23.6,0000.0,0011.49,0006.19,0005.78
2022-10-05 06:29:00,,0832.1,4.99,0.00,29.2,27.8,00.0,37.9,31.1,23.9,0000.0,0011.31,0006.14,0005.72
2022-10-05 06:30:00,,0832.1,5.00,0.00,29.2,27.8,00.0,37.9,31.1,24.1,0000.0,0011.20,0006.13,0005.72
2022-10-05 06:31:00,,0832.1,4.99,0.00,29.2,27.8,00.0,37.9,31.1,24.0,0000.0,0010.55,0006.14,0005.76
2022-10-05 06:32:00,,0832.1,4.99,0.00,29.2,27.9,00.0,37.9,31.1,23.9,0000.0,0010.07,0006.13,0005.77
2022-10-05 06:33:00,,0832.1,5.00,0.00,29.2,27.9,00.0,37.9,31.1,23.7,0000.0,0009.35,0006.14,0005.78
2022-10-05 06:34:00,,0832.1,5.01,0.00,29.2,27.9,00.0,37.9,31.1,23.6,0000.0,0009.35,0006.18,0005.80
2022-10-05 06:35:00,,0832.1,4.98,0.00,29.2,27.9,00.0,37.9,31.1,23.6,0000.0,0009.30,0006.20,0005.83
2022-10-05 06:36:00,,0832.1,5.01,0.00,29.3,27.9,00.0,37.9,31.1,23.4,0000.0,0009.13,0006.18,0005.85
2022-10-05 06:37:00,,0832.1,4.99,0.00,29.3,27.9,00.0,37.9,31.1,23.5,0000.0,0009.15,0006.19,0005.85
2022-10-05 06:38:00,,0832.1,5.00,0.00,29.3,27.9,00.0,37.9,31.1,23.5,0000.0,0009.16,0006.20,0005.85
2022-10-05 06:39:00,,0832.1,5.01,0.00,29.3,27.9,00.0,38.0,31.1,23.7,0000.0,0009.27,0006.20,0005.86
2022-10-05 06:40:00,,0832.1,5.00,0.00,29.3,27.9,00.0,38.0,31.1,23.6,0000.0,0009.47,0006.17,0005.86
2022-10-05 06:41:00,,0832.1,4.99,0.00,29.3,27.8,00.0,38.0,31.1,22.9,0000.0,0009.42,0006.11,0005.81
2022-10-05 06:42:00,,0832.1,5.01,0.00,29.3,27.8,00.0,38.0,31.1,22.6,0000.0,0009.35,0006.05,0005.74
2022-10-05 06:43:00,,0832.1,4.99,0.00,29.3,27.8,00.0,38.0,31.1,22.5,0000.0,0009.31,0005.99,0005.68
2022-10-05 06:44:00,,0832.1,5.01,0.00,29.3,27.8,00.0,38.0,31.1,22.5,0000.0,0009.23,0005.94,0005.62
2022-10-05 06:45:00,,0832.1,5.01,0.00,29.3,27.8,00.0,38.0,31.1,23.7,0000.0,0009.87,0005.92,0005.62
2022-10-05 06:46:00,,0832.1,4.98,0.00,29.3,27.8,00.0,38.0,31.1,23.5,0000.0,0010.01,0005.91,0005.63
2022-10-05 06:47:00,,0832.1,5.01,0.00,29.3,27.8,00.0,38.0,31.1,23.2,0000.0,0010.05,0005.91,0005.62
2022-10-05 06:48:00,,0832.1,5.00,0.00,29.3,27.8,00.0,38.0,31.1,23.3,0000.0,0010.17,0005.91,0005.63
2022-10-05 06:49:00,,0832.0,4.99,0.00,29.3,27.8,00.0,38.0,31.1,23.9,0000.0,0010.15,0005.91,0005.64
2022-10-05 06:50:00,,0832.0,5.01,0.00,29.3,27.8,00.0,38.0,31.1,24.2,0000.0,0009.98,0005.93,0005.66
2022-10-05 06:51:00,,0832.0,4.98,0.00,29.3,27.8,00.0,38.0,31.1,24.2,0000.0,0009.77,0005.94,0005.65
2022-10-05 06:52:00,,0832.0,5.02,0.00,29.3,27.8,00.0,38.0,31.1,23.9,0000.0,0009.75,0005.95,0005.67
2022-10-05 06:53:00,,0832.0,5.00,0.00,29.3,27.8,00.0,38.0,31.1,23.7,0000.0,0009.80,0005.99,0005.70
2022-10-05 06:54:00,,0832.1,4.99,0.00,29.3,27.8,00.0,38.0,31.1,24.6,0000.0,0009.86,0006.05,0005.76
2022-10-05 06:55:00,,0832.1,5.01,0.00,29.3,27.8,00.0,38.0,31.1,24.9,0000.0,0010.38,0006.14,0005.82
2022-10-05 06:56:00,,0832.1,4.98,0.00,29.3,27.8,00.0,38.0,31.1,25.0,0000.0,0010.13,0006.17,0005.81
2022-10-05 06:57:00,,0832.1,5.01,0.00,29.3,27.8,00.0,38.0,31.1,25.0,0000.0,0010.05,0006.20,0005.79
2022-10-05 06:58:00,,0832.1,5.00,0.00,29.3,27.8,00.0,38.0,31.1,25.1,0000.0,0010.06,0006.23,0005.80
2022-10-05 06:59:00,,0832.1,5.00,0.00,29.3,27.8,00.0,38.0,31.1,25.3,0000.0,0010.51,0006.23,0005.80
